SCP
0 0 0 0 0 0 0 0 0 0 0 0 0 0 0 0 0 0 0 0 0 0
0 0 0 0 0 0 0 0 0 0 0 0 0 0 0 0 0 0 0 0 0 0
0 0 0 0 0 0 0 0 0 0 0 0 0 0 0 0 0 0 0 0 0 0
0 0 0 0 0 0 0 0 0 0 0 0 0 0 0 0 0 0 0 0 0 0
0 0 0 0 0 0 0 0 0 0 0 0 0 0 0 0 0 0 0 0 0 0
0 0 0 0 0 0 0 0 0 0 0 0 0 0 0 0 0 0 0 0 0 0
0 0 0 0 0 0 0 0 0 0 0 0 0 0 0 0 0 0 0 0 0 0
0 0 0 0 0 0 0 0 0 0 0 0 0 0 0 0 0 0 0 0 0 0
0 0 0 0 0 0 0 0 0 0 0 0 0 0 0 0 0 0 0 0 0 0
0 0 0 0 0 0 0 0 0 0 0 0 0 0 0 0 0 0 0 0 0 0
0 0 0 0 0 0 0 0 0 0 0 0 0 0 0 0 0 0 0 0 0 0
0 0 0 0 0 0 0 0 0 0 0 0 0 0 0 0 0 0 0 0 0 0
0 0 0 0 0 0 0 0 0 0 0 0 0 0 0 0 0 0 0 0 0 0
0 0 0 0 0 0 0 0 0 0 0 0 0 0 0 0 0 0 0 0 0 0
Wind_Speed_500mb
87 87 91 92 100 101 101 99 101 104 103 99 93 88 82 77 73 70 65 60 57 52
87 88 85 82 93 101 100 97 96 99 104 102 96 92 87 82 76 71 66 61 56 52
78 82 83 76 88 94 98 97 95 95 99 103 100 93 87 81 76 71 65 61 58 55
68 73 78 82 88 93 88 91 87 82 89 98 99 93 89 82 76 72 67 63 59 55
61 65 72 79 84 89 86 84 79 78 83 91 94 92 90 85 80 76 70 65 59 56
52 57 62 67 72 76 77 76 75 81 86 91 92 94 92 85 80 74 67 61 56 54
43 48 53 56 60 63 68 72 74 77 83 86 88 92 92 86 79 71 65 59 55 53
33 37 41 48 53 57 63 68 72 72 81 84 88 94 93 87 80 72 65 60 56 52
21 27 33 39 46 52 59 65 70 75 76 81 84 89 87 80 73 66 59 56 53 51
11 19 25 32 40 47 53 57 63 68 74 75 78 80 79 75 71 67 64 59 51 51
4 5 16 26 34 41 46 51 58 62 64 67 73 77 75 71 65 61 56 50 46 48
6 2 6 14 22 30 37 42 47 52 57 60 60 60 60 60 57 50 48 46 48 50
1 5 9 13 17 24 28 33 38 43 45 48 51 50 50 51 50 46 47 49 48 48
5 9 12 15 20 23 27 29 33 37 40 42 44 48 49 49 49 50 48 48 47 46
Wind_Direction_500mb
235 233 232 231 237 239 239 237 234 232 229 230 230 230 230 230 231 233 233 234 237 240
236 234 232 229 237 240 242 241 238 235 232 230 230 229 230 230 231 232 233 235 237 240
239 240 237 228 233 236 239 240 239 235 232 230 230 230 229 229 230 231 232 233 235 239
237 238 238 235 231 238 240 242 242 238 235 231 230 228 228 229 229 229 230 231 234 238
238 238 239 238 235 240 242 245 246 238 233 232 230 228 228 227 227 228 228 230 232 236
234 237 238 240 240 241 242 241 241 236 230 226 227 226 225 226 227 228 228 231 234 236
231 236 238 240 238 238 238 236 232 235 230 227 225 223 223 223 222 224 227 229 231 234
229 231 234 236 236 234 233 234 231 229 230 225 223 220 218 217 218 219 221 224 228 232
241 236 232 232 233 233 231 231 227 223 225 225 222 218 218 217 214 215 219 224 229 233
242 236 235 234 232 231 229 228 226 224 219 218 217 212 211 210 213 216 218 222 227 235
7 243 229 227 227 227 225 221 219 217 215 210 207 208 212 214 214 216 219 224 230 240
54 65 184 195 204 209 210 206 204 204 204 206 203 206 208 211 214 217 221 228 231 233
200 192 190 190 191 191 192 195 193 193 197 200 202 205 209 211 215 219 223 226 229 235
269 238 230 219 208 204 204 203 202 201 202 204 208 211 215 223 222 222 223 225 225 227
Wind_Speed_850mb
87 87 91 92 100 101 101 99 101 104 103 99 93 88 82 77 73 70 65 60 57 52
87 88 85 82 93 101 100 97 96 99 104 102 96 92 87 82 76 71 66 61 56 52
78 82 83 76 88 94 98 97 95 95 99 103 100 93 87 81 76 71 65 61 58 55
68 73 78 82 88 93 88 91 87 82 89 98 99 93 89 82 76 72 67 63 59 55
61 65 72 79 84 89 86 84 79 78 83 91 94 92 90 85 80 76 70 65 59 56
52 57 62 67 72 76 77 76 75 81 86 91 92 94 92 85 80 74 67 61 56 54
43 48 53 56 60 63 68 72 74 77 83 86 88 92 92 86 79 71 65 59 55 53
33 37 41 48 53 57 63 68 72 72 81 84 88 94 93 87 80 72 65 60 56 52
21 27 33 39 46 52 59 65 70 75 76 81 84 89 87 80 73 66 59 56 53 51
11 19 25 32 40 47 53 57 63 68 74 75 78 80 79 75 71 67 64 59 51 51
4 5 16 26 34 41 46 51 58 62 64 67 73 77 75 71 65 61 56 50 46 48
6 2 6 14 22 30 37 42 47 52 57 60 60 60 60 60 57 50 48 46 48 50
1 5 9 13 17 24 28 33 38 43 45 48 51 50 50 51 50 46 47 49 48 48
5 9 12 15 20 23 27 29 33 37 40 42 44 48 49 49 49 50 48 48 47 46
Wind_Direction_850mb
235 233 232 231 237 239 239 237 234 232 229 230 230 230 230 230 231 233 233 234 237 240
236 234 232 229 237 240 242 241 238 235 232 230 230 229 230 230 231 232 233 235 237 240
239 240 237 228 233 236 239 240 239 235 232 230 230 230 229 229 230 231 232 233 235 239
237 238 238 235 231 238 240 242 242 238 235 231 230 228 228 229 229 229 230 231 234 238
238 238 239 238 235 240 242 245 246 238 233 232 230 228 228 227 227 228 228 230 232 236
234 237 238 240 240 241 242 241 241 236 230 226 227 226 225 226 227 228 228 231 234 236
231 236 238 240 238 238 238 236 232 235 230 227 225 223 223 223 222 224 227 229 231 234
229 231 234 236 236 234 233 234 231 229 230 225 223 220 218 217 218 219 221 224 228 232
241 236 232 232 233 233 231 231 227 223 225 225 222 218 218 217 214 215 219 224 229 233
242 236 235 234 232 231 229 228 226 224 219 218 217 212 211 210 213 216 218 222 227 235
7 243 229 227 227 227 225 221 219 217 215 210 207 208 212 214 214 216 219 224 230 240
54 65 184 195 204 209 210 206 204 204 204 206 203 206 208 211 214 217 221 228 231 233
200 192 190 190 191 191 192 195 193 193 197 200 202 205 209 211 215 219 223 226 229 235
269 238 230 219 208 204 204 203 202 201 202 204 208 211 215 223 222 222 223 225 225 227